Location: Peebles
(55.6412°N, 3.1714°W)
Time: 21:49:05
(UTC+01:00)

DOVE 4 - Visible Passes

Search period start: 26 May 2024 00:00
Search period end: 05 June 2024 00:00
Orbit: 581 x 778 km, 97.7° (Epoch: 26 May)

Date Brightness Start Highest point End Pass type
(mag) Time Alt. Az. Time Alt. Az. Time Alt. Az.
26 May ? 00:53:20 10° N 00:56:55 20° NW 01:00:32 10° W visible
26 May ? 23:51:05 10° N 23:55:57 46° WNW 00:00:53 10° SW visible
27 May ? 01:30:10 10° NNW 01:32:11 12° NW 01:34:15 10° WNW visible
27 May ? 22:49:23 10° NNE 22:54:31 68° ESE 22:59:42 10° S visible
28 May ? 00:27:13 10° N 00:31:30 28° WNW 00:35:49 10° WSW visible
28 May ? 23:25:14 10° N 23:30:21 69° WNW 23:35:30 10° SSW visible
29 May ? 01:03:37 10° N 01:06:53 17° NW 01:10:10 10° W visible
30 May ? 00:01:15 10° N 00:06:00 39° WNW 00:10:48 10° SW visible
30 May ? 01:40:49 10° NNW 01:42:07 11° NW 01:43:24 10° WNW visible
30 May ? 22:59:27 10° NNE 23:04:40 81° ESE 23:09:51 10° SSW visible
31 May ? 00:37:26 10° N 00:41:29 24° NW 00:45:34 10° WSW visible
31 May ? 23:35:20 10° N 23:40:25 58° WNW 23:45:29 10° SW visible
01 Jun ? 01:13:56 10° NNW 01:16:48 15° NW 01:19:41 10° W visible
01 Jun ? 22:33:45 10° NNE 22:38:51 53° E 22:43:53 10° S visible
02 Jun ? 00:11:23 10° N 00:16:00 34° WNW 00:20:36 10° WSW visible
02 Jun ? 23:09:30 10° NNE 23:14:44 86° WNW 23:19:53 10° SSW visible
03 Jun ? 00:47:37 10° N 00:51:24 21° NW 00:55:12 10° W visible
03 Jun ? 23:45:25 10° N 23:50:25 49° WNW 23:55:21 10° SW visible
04 Jun ? 01:24:16 10° NNW 01:26:39 13° NW 01:29:02 10° WNW visible
04 Jun ? 22:43:44 10° NNE 22:48:56 64° ESE 22:54:00 10° S visible
